カタログに戻る

H-2A R/B

運用中HEO
NORAD 42739·ROCKET BODY·🇯🇵 Japan

打ち上げ Jun 1, 2017 から Tanegashima Space Center

Loading…

次のパス (今後24時間)

TLE

最新Source: Space-Track

元期: Sep 11, 2026, 19:41 UTC

1 42739U 17028B   26254.82065838  .00002521  00000-0  70325-3 0  9992
2 42739  31.3256 136.8856 7165081 270.1410  15.5528  2.42668278 79587

AllMySatでH-2A R/Bをリアルタイム追跡

Download on the App Store